This is the latest recevied weather packets stored in our database for station/object KC5TIL-3. If no packets are shown the sender has not sent any weather packets the latest 10 day(s).
| Time | Temp. | Humidity | Pressure | Rain* | Wind** | Luminosity | Snow |
|---|---|---|---|---|---|---|---|
| 1777518739 | 16.67° C | 49% | 1012.8 hPa | 0 mm | 1.79 m/s, 42° | - | - |
| 1777518495 | 16.67° C | 48% | 1012.8 hPa | 0 mm | 1.34 m/s, 6° | - | - |
| 1777518437 | 16.67° C | 48% | 1012.8 hPa | 0 mm | 1.34 m/s, 6° | - | - |
| 1777518175 | 17.22° C | 48% | 1012.8 hPa | 0 mm | 1.79 m/s, 15° | - | - |
| 1777518133 | 17.22° C | 48% | 1012.8 hPa | 0 mm | 1.79 m/s, 15° | - | - |
| 1777517830 | 17.22° C | 48% | 1012.8 hPa | 0 mm | 1.79 m/s, 5° | - | - |
| 1777517286 | 16.67° C | 47% | 1012.8 hPa | 0 mm | 2.68 m/s, 30° | - | - |
| 1777517231 | 16.67° C | 47% | 1012.8 hPa | 0 mm | 2.68 m/s, 30° | - | - |
| 1777516933 | 16.67° C | 47% | 1012.8 hPa | 0 mm | 3.58 m/s, 17° | - | - |
| 1777516329 | 16.67° C | 47% | 1011.8 hPa | 0 mm | 3.58 m/s, 15° | - | - |
| 1777516078 | 16.67° C | 47% | 1011.8 hPa | 0 mm | 3.58 m/s, 33° | - | - |
| 1777516031 | 16.67° C | 47% | 1011.8 hPa | 0 mm | 3.58 m/s, 33° | - | - |
| 1777515730 | 16.67° C | 47% | 1011.8 hPa | 0 mm | 3.13 m/s, 100° | - | - |
| 1777515474 | 16.67° C | 48% | 1011.8 hPa | 0 mm | 2.68 m/s, 25° | - | - |
| 1777515431 | 16.67° C | 48% | 1011.8 hPa | 0 mm | 2.68 m/s, 25° | - | - |
| 1777514870 | 16.67° C | 48% | 1011.8 hPa | 0 mm | 3.13 m/s, 52° | - | - |
| 1777514832 | 16.67° C | 48% | 1011.8 hPa | 0 mm | 3.13 m/s, 52° | - | - |
| 1777514530 | 16.67° C | 48% | 1011.8 hPa | 0 mm | 3.13 m/s, 18° | - | - |
| 1777514231 | 16.67° C | 48% | 1011.8 hPa | 0 mm | 3.13 m/s, 83° | - | - |
| 1777513925 | 16.67° C | 48% | 1011.8 hPa | 0 mm | 3.58 m/s, 17° | - | - |
| 1777513627 | 16.67° C | 48% | 1011.8 hPa | 0 mm | 2.68 m/s, 25° | - | - |
| 1777513324 | 16.67° C | 48% | 1011.8 hPa | 0 mm | 2.24 m/s, 116° | - | - |
| 1777513057 | 16.67° C | 48% | 1010.8 hPa | 0 mm | 2.24 m/s, 17° | - | - |
| 1777513023 | 16.67° C | 48% | 1010.8 hPa | 0 mm | 2.24 m/s, 17° | - | - |
| 1777512724 | 16.67° C | 48% | 1010.8 hPa | 0 mm | 0 m/s | - | - |
* Rain latest hour (hover to see other rain measurements)
** Current wind speed in m/s (hover to see current wind gust speed)